Weather History for KBUY - December, 2012

Change the Weather History Date:

Tuesday, December 4, 2012

  Actual Average Record
Temperature  
Mean Temperature 58 °F -  
Max Temperature 73 °F 55 °F 75 °F (1998)
Min Temperature 42 °F 30 °F 17 °F (1966)
Degree Days  
Heating Degree Days 8    
Growing Degree Days 8 (Base 50)    
Moisture  
Dew Point 47 °F    
Average Humidity 84    
Maximum Humidity 100    
Minimum Humidity 41    
Precipitation  
Precipitation 0.00 in - - ()
Sea Level Pressure  
Sea Level Pressure 30.24 in    
Wind  
Wind Speed 1 mph (SSW)    
Max Wind Speed 12 mph    
Max Gust Speed 17 mph    
Visibility 6 miles    
Events Fog    
Averages and records for this station are not official NWS values.
T = Trace of Precipitation, MM = Missing Value Source: NWS Daily Summary

Daily Weather History Graph

Daily Weather History Graph

Search for Another Location

Airport or City:

Trip Planner

Search our weather history database for the weather conditions in past years. The results will help you decide how hot, cold, wet, or windy it might be!

Date:

Astronomy

Dec. 04, 2012 Rise Set
Actual Time 7:13 AM EST 5:03 PM EST
Civil Twilight 6:44 AM EST 5:31 PM EST
Nautical Twilight 6:13 AM EST 6:03 PM EST
Astronomical Twilight 5:41 AM EST 6:34 PM EST
Moon 10:42 PM EST (12/4) 11:12 AM EST (12/4)
Length of Visible Light 10h 46m
Length of Day
9h 50m
Waning Gibbous, 69% of the Moon is Illuminated
Dec 4
Waning Gibbous
Dec 6
Last Quarter
Dec 13
New
Dec 20
First Quarter
Dec 28
Full

Hourly Weather History & Observations

Time (EST) Temp. Dew Point Humidity Pressure Visibility Wind Dir Wind Speed Gust Speed Precip Events Conditions
12:54 AM 51.1 °F 46.9 °F 86% 30.25 in 10.0 mi Calm Calm - N/A   Clear
1:54 AM 48.9 °F 46.9 °F 93% 30.25 in 9.0 mi Calm Calm - N/A   Clear
2:54 AM 50.0 °F 48.0 °F 93% 30.25 in 4.0 mi Calm Calm - N/A   Clear
3:00 AM 48.2 °F 46.4 °F 93% 30.26 in 1.0 mi Calm Calm - N/A   Mist
3:07 AM 48.2 °F 46.4 °F 93% 30.26 in 0.8 mi Calm Calm - N/A   Mist
3:10 AM 46.4 °F 46.4 °F 100% 30.26 in 1.8 mi Calm Calm - N/A   Clear
3:12 AM 46.4 °F 44.6 °F 93% 30.26 in 4.0 mi Calm Calm - N/A   Clear
3:36 AM 48.2 °F 46.4 °F 93% 30.25 in 1.2 mi Calm Calm - N/A   Clear
3:43 AM 48.2 °F 48.2 °F 100% 30.25 in 0.5 mi Calm Calm - N/A Fog Fog
3:49 AM 46.4 °F 46.4 °F 100% 30.25 in 2.0 mi Calm Calm - N/A   Clear
3:54 AM 46.9 °F 46.0 °F 97% 30.25 in 4.0 mi Calm Calm - N/A   Clear
4:42 AM 46.4 °F 44.6 °F 93% 30.25 in 4.0 mi Calm Calm - N/A   Partly Cloudy
4:44 AM 46.4 °F 44.6 °F 93% 30.25 in 1.5 mi Calm Calm - N/A   Partly Cloudy
4:54 AM 45.0 °F 44.1 °F 97% 30.25 in 2.5 mi Calm Calm - N/A   Partly Cloudy
5:01 AM 44.6 °F 44.6 °F 100% 30.26 in 4.0 mi Calm Calm - N/A   Partly Cloudy
5:15 AM 46.4 °F 44.6 °F 93% 30.26 in 1.2 mi Calm Calm - N/A   Partly Cloudy
5:17 AM 46.4 °F 44.6 °F 93% 30.26 in 0.8 mi Calm Calm - N/A   Mist
5:30 AM 44.6 °F 42.8 °F 93% 30.26 in 2.5 mi Calm Calm - N/A   Partly Cloudy
5:37 AM 44.6 °F 42.8 °F 93% 30.26 in 10.0 mi Calm Calm - N/A   Partly Cloudy
5:54 AM 44.1 °F 43.0 °F 96% 30.26 in 5.0 mi Calm Calm - N/A   Clear
6:23 AM 44.6 °F 42.8 °F 93% 30.27 in 9.0 mi Calm Calm - N/A   Partly Cloudy
6:54 AM 42.1 °F 41.0 °F 96% 30.28 in 8.0 mi Calm Calm - N/A   Clear
7:21 AM 42.8 °F 41.0 °F 93% 30.29 in 7.0 mi Calm Calm - N/A   Scattered Clouds
7:54 AM 45.0 °F 44.1 °F 97% 30.29 in 5.0 mi Calm Calm - N/A   Mostly Cloudy
8:54 AM 53.1 °F 50.0 °F 89% 30.30 in 6.0 mi Calm Calm - N/A   Mostly Cloudy
9:54 AM 57.0 °F 52.0 °F 83% 30.30 in 10.0 mi Calm Calm - N/A   Overcast
10:54 AM 61.0 °F 53.1 °F 75% 30.30 in 10.0 mi SW 3.5 mph - N/A   Overcast
11:54 AM 66.0 °F 54.0 °F 65% 30.26 in 10.0 mi Variable 5.8 mph - N/A   Overcast
1:54 PM 73.0 °F 50.0 °F 44% 30.19 in 10.0 mi SSW 11.5 mph 17.3 mph N/A   Clear
2:54 PM 72.0 °F 46.9 °F 41% 30.17 in 10.0 mi SSW 9.2 mph - N/A   Clear
3:54 PM 71.1 °F 46.9 °F 42% 30.17 in 10.0 mi SSW 6.9 mph - N/A   Clear
4:54 PM 68.0 °F 48.9 °F 50% 30.18 in 10.0 mi South 4.6 mph - N/A   Clear
5:54 PM 66.0 °F 52.0 °F 60% 30.19 in 10.0 mi South 8.1 mph - N/A   Clear
6:54 PM 63.0 °F 53.1 °F 70% 30.19 in 10.0 mi South 5.8 mph - N/A   Clear
7:54 PM 62.1 °F 54.0 °F 75% 30.19 in 10.0 mi SSW 4.6 mph - N/A   Clear
8:54 PM 62.1 °F 53.1 °F 72% 30.18 in 10.0 mi SSW 5.8 mph - N/A   Clear
9:54 PM 63.0 °F 53.1 °F 70% 30.18 in 10.0 mi SSW 4.6 mph - N/A   Clear
10:54 PM 60.1 °F 52.0 °F 75% 30.17 in 10.0 mi SSW 5.8 mph - N/A   Clear
11:54 PM 59.0 °F 52.0 °F 78% 30.15 in 10.0 mi SSW 5.8 mph - N/A   Clear